Regional Weather Roundup
Issued by NWS

Home | Current Version | Previous Version | Graphics & Text | Print | Product List | Glossary On
Versions: 1 2 3 4 5 6 7 8 9 10 11 12 13 14 15 16 17 18 19 20 21 22 23 24 25 26 27 28 29 30 31 32 33 34 35 36 37 38 39 40 41 42 43 44 45 46 47 48 49 50
000
ASUS43 KDTX 020510
RWRMI
MICHIGAN HOURLY REGIONAL WEATHER ROUNDUP
NATIONAL WEATHER SERVICE DETROIT/PONTIAC MI
100 AM EDT WED SEP 02 2015

NOTE: "FAIR" INDICATES FEW OR NO CLOUDS BELOW 12,000 FEET WITH NO
SIGNIFICANT WEATHER AND/OR OBSTRUCTION TO VISIBILITY.

MIZ047>049-052>055-059>063-066>070-074>076-081>083-020600-
SOUTHEAST LOWER MICHIGAN

CITY           SKY/WX    TMP DP  RH WIND       PRES   REMARKS
ADRIAN         CLEAR     70  67  90 W3        30.09S
ALMA           CLEAR     70  69  98 S3        30.05S FOG
ANN ARBOR      CLEAR     66  65  96 SW3       30.07S FOG
BAD AXE          N/A     67  66  97 CALM      30.05S FOG
DETROIT CITY   CLEAR     77  69  76 SW5       30.06S
DETROIT        CLEAR     75  68  78 SW6       30.07S
FLINT          CLEAR     75  67  76 SW5       30.06S
GROSSE ILE     CLEAR     75  70  83 SW3       30.06S
HILLSDALE      MOCLDY    74  73  97 SW5       30.10S
HOWELL         CLEAR     73  67  83 SW3       30.07S

CITY           SKY/WX    TMP DP  RH WIND       PRES   REMARKS
JACKSON        CLEAR     72  69  90 SW5       30.08S
LAMBERTVILLE   CLEAR     75  69  80 SW3       30.09S
LANSING        CLEAR     73  68  84 SW6       30.07S
LAPEER         FOG       65  65 100 CALM      30.06S VSB 1/4
MASON          CLEAR     70  65  85 CALM      30.08S
MT. CLEMENS    CLEAR     71  68  90 CALM      30.04S FOG
PONTIAC        CLEAR     72  68  87 CALM      30.07R
PORT HOPE        N/A     74  69  85 CALM      30.02R
PORT HURON     FOG       68  68 100 CALM      30.06S VSB<1/4
TRI CITIES     CLEAR     74  69  85 SW6       30.05R
MIDLAND        FAIR      70  69  96 CALM      30.03S FOG
TROY           CLEAR     76  71  83 SW5       30.08S
SAGINAW HB     PTCLDY    72  70  94 SW6       30.04S
$$
MIZ043>046-050>051-056>058-064>065-071>073-077>080-020600-
SOUTHWEST LOWER MICHIGAN

CITY           SKY/WX    TMP DP  RH WIND       PRES   REMARKS
BATTLE CREEK   CLEAR     73  69  87 SW5       30.08S
BENTON HARBOR  CLEAR     75  69  81 S3        30.05S
COLDWATER      CLEAR     72  70  96 SW3       30.09S
FREMONT        FAIR      72  71  99 S3        30.03S
HOLLAND        PTCLDY    78  71  79 SW14      30.05S
GRAND RAPIDS   PTCLDY    74  71  91 S6        30.05S
IONIA          FAIR      73  67  83 S6        30.05S
KALAMAZOO      CLEAR     72  68  87 SW7       30.08R
LUDINGTON      PTCLDY    76  71  83 S3        30.01S
MARSHALL       CLEAR     72  69  90 SW3       30.08S
MOUNT PLEASANT CLEAR     72  70  93 CALM      30.03S FOG
MUSKEGON       PTCLDY    76  70  82 S14       30.02S
SOUTH HAVEN    CLEAR     75  70  83 SW6       30.05S
$$
MIZ016>042-020600-
NORTHERN LOWER MICHIGAN

CITY           SKY/WX    TMP DP  RH WIND       PRES   REMARKS
ALPENA         CLEAR     72  67  84 SW3       30.01S
BEAVER ISLAND  PTCLDY    73  69  89 SW12      29.98S
BELLAIRE       PTCLDY    69  68  94 CALM      30.00S FOG
CADILLAC       FOG       68  66  94 CALM      30.05S VSB 1/4
CHARLEVOIX     PTCLDY    76  71  85 S7        30.01S
FRANKFORT      PTCLDY    76  70  83 CALM      30.00R
GAYLORD        CLEAR     72  70  93 SW6       30.04S
GRAYLING       CLEAR     72  69  90 SW3       30.04S
HARBOR SPRINGS PTCLDY    70  68  94 CALM      29.99S
HOUGHTON LAKE  CLEAR     72  69  90 CALM      30.05S FOG
MANISTEE       PTCLDY    72  66  83 CALM      30.01S
OSCODA         CLEAR     69  67  94 SW3       30.01S
PELLSTON       PTCLDY    69  67  93 E3        29.99S FOG
ROGERS CITY    CLEAR     73  69  88 CALM      30.00F
TRAVERSE CITY  CLEAR     76  70  82 S6        29.99R
$$
MIZ007>008-015-020600-
EASTERN UPPER MICHIGAN

CITY           SKY/WX    TMP DP  RH WIND       PRES   REMARKS
KINROSS        PTCLDY    70  70 100 CALM      29.98S
MACKINAC ISLAN PTCLDY    68  67  96 CALM      29.98F FOG
NEWBERRY       CLEAR     68  67  98 SW7       29.96S FOG
S. S. MARIE    PTCLDY    69  66  90 E3        29.97S FOG
MUNISING         N/A     69  65  86 CALM      29.95R
$$
MIZ004>006-011>014-085-020600-
CENTRAL UPPER MICHIGAN

CITY           SKY/WX    TMP DP  RH WIND       PRES   REMARKS
MANISTIQUE     CLEAR     65  64  96 S3        29.96S FOG
ESCANABA       PTCLDY    66  64  94 CALM      29.95S
MENOMINEE      MOCLDY    73  66  78 W3        29.95S
SAWYER-GWINN   CLEAR     69  65  87 CALM      29.98R
$$
MIZ001>003-009>011-084-020600-
WESTERN UPPER MICHIGAN

CITY           SKY/WX    TMP DP  RH WIND       PRES   REMARKS
IRON MOUNTAIN  PTCLDY    68  66  93 CALM      29.97S FOG
HOUGHTON       CLEAR     67  66  97 NW5       29.95S FOG
IRONWOOD         N/A     68  66  94 CALM      29.94S VSB 1/2
$$

ABBREVIATIONS USED IN REMARKS
   TC - TEMPERATURE IN CELSIUS
  WCI - WIND CHILL INDEX
   HX - HEAT INDEX
  VSB - VISIBILITY




USA.gov is the U.S. government's official web portal to all federal, state and local government web resources and services.